FW4261 Weather Reports


time (UTC)temp
C
wind
direction
speed
KPH
gust
KPH
rain 1hr
cm
rain 24hr
cm
rain mn
cm
humidity
%
barometer
mb
20260505111216 12 152 0.0 1.6 0.00 0.00 0.00 89 1014.6
20260505110720 12 140 0.0 1.6 0.00 0.00 0.00 89 1014.6
20260505110239 12 182 1.6 1.6 0.00 0.00 0.00 89 1014.6
20260505101818 12 152 0.0 1.6 0.00 0.00 0.00 89 1014.6
20260505101323 12 130 0.0 0.0 0.00 0.00 0.00 89 1014.6
20260505100818 12 143 0.0 1.6 0.00 0.00 0.00 89 1014.5
20260505100338 12 129 0.0 1.6 0.00 0.00 0.00 89 1014.6
20260505095818 12 144 1.6 3.2 0.00 0.00 0.00 89 1014.7
20260505095323 12 137 0.0 1.6 0.00 0.00 0.00 89 1014.8
20260505094818 12 134 0.0 3.2 0.00 0.00 0.00 89 1014.8
20260505094316 12 144 1.6 1.6 0.00 0.00 0.00 89 1014.8
20260505093816 12 141 0.0 1.6 0.00 0.00 0.00 89 1014.7
20260505093319 12 175 1.6 1.6 0.00 0.00 0.00 89 1014.8
20260505092819 12 0.0 0.0 0.00 0.00 0.00 89 1014.8
20260505092319 12 151 0.0 1.6 0.00 0.00 0.00 88 1014.9
20260505091819 12 136 1.6 1.6 0.00 0.00 0.00 88 1015.0
20260505091319 12 133 0.0 1.6 0.00 0.00 0.00 88 1015.0
20260505090820 12 144 0.0 1.6 0.00 0.00 0.00 88 1015.1
20260505090317 12 161 1.6 1.6 0.00 0.00 0.00 88 1015.2
20260505085817 12 166 0.0 1.6 0.00 0.00 0.00 88 1015.2
20260505085342 12 176 1.6 3.2 0.00 0.00 0.00 88 1015.1
20260505084838 12 143 1.6 1.6 0.00 0.00 0.00 89 1015.1
20260505084317 12 134 1.6 1.6 0.00 0.00 0.00 89 1015.1
20260505083817 12 156 0.0 1.6 0.00 0.00 0.00 88 1015.1
20260505083320 12 144 0.0 1.6 0.00 0.00 0.00 89 1015.1
20260505082817 12 0.0 0.0 0.00 0.00 0.00 89 1015.2
20260505082318 12 154 0.0 1.6 0.00 0.00 0.00 89 1015.2
20260505081818 12 173 1.6 3.2 0.00 0.00 0.00 88 1015.2
20260505081323 12 171 1.6 3.2 0.00 0.00 0.00 89 1015.2
20260505080817 12 144 0.0 1.6 0.00 0.00 0.00 89 1015.3
20260505080318 12 158 1.6 3.2 0.00 0.00 0.00 89 1015.4
20260505075838 12 182 1.6 3.2 0.00 0.00 0.00 89 1015.3
20260505075318 12 180 1.6 1.6 0.00 0.00 0.00 89 1015.3
20260505074818 12 182 1.6 1.6 0.00 0.00 0.00 89 1015.3
20260505074318 12 173 1.6 3.2 0.00 0.00 0.00 89 1015.3
20260505073818 12 146 0.0 1.6 0.00 0.00 0.00 88 1015.3
20260505073339 12 164 0.0 1.6 0.00 0.00 0.00 89 1015.2
20260505072818 12 184 1.6 3.2 0.00 0.00 0.00 89 1015.2
20260505072318 12 149 1.6 1.6 0.00 0.00 0.00 89 1015.1
20260505071819 12 0.0 0.0 0.00 0.00 0.00 89 1015.1
20260505070718 12 172 0.0 3.2 0.00 0.00 0.00 89 1015.1
20260505070218 12 181 1.6 3.2 0.00 0.00 0.00 89 1015.2
20260505065718 12 185 1.6 3.2 0.00 0.00 0.00 88 1015.2
20260505065239 -17 158 1.6 1.6 0.00 0.00 0.00
20260505064620 12 179 0.0 1.6 0.00 0.00 0.00 88 1015.0
20260505064119 12 163 1.6 1.6 0.00 0.00 0.00 88 1015.0
20260505063619 12 157 0.0 1.6 0.00 0.00 0.00 88 1014.9
20260505063121 12 166 1.6 1.6 0.00 0.00 0.00 88 1014.8
20260505062619 12 165 1.6 3.2 0.00 0.00 0.00 88 1014.8
20260505062119 12 187 1.6 3.2 0.00 0.00 0.00 88 1014.8
20260505061619 12 143 1.6 1.6 0.00 0.00 0.00 88 1014.9
20260505061124 12 150 1.6 1.6 0.00 0.00 0.00 88 1015.0
20260505060620 12 152 0.0 1.6 0.00 0.00 0.00 87 1015.0
20260505060119 12 177 1.6 3.2 0.00 0.00 0.00 87 1015.1
20260505055620 12 190 1.6 3.2 0.00 0.00 0.00 87 1015.1
20260505055120 12 184 1.6 1.6 0.00 0.00 0.00 87 1015.2
20260505054645 12 166 1.6 1.6 0.00 0.00 0.00 87 1015.2
20260505053717 12 186 1.6 3.2 0.00 0.00 0.00 86 1015.2
20260505053217 12 183 0.0 1.6 0.00 0.00 0.00 86 1015.2
20260505052718 12 144 0.0 1.6 0.00 0.00 0.00 86 1015.3
20260505052217 12 151 0.0 1.6 0.00 0.00 0.00 86 1015.3
20260505051718 12 138 1.6 1.6 0.00 0.00 0.00 86 1015.3
20260505051239 12 133 1.6 1.6 0.00 0.00 0.00 85 1015.4
20260505050717 12 145 0.0 1.6 0.00 0.00 0.00 85 1015.4
20260505050218 13 185 1.6 3.2 0.00 0.00 0.00 85 1015.4
20260505041718 13 131 1.6 1.6 0.00 0.00 0.00 83 1015.0
20260505041218 13 135 1.6 1.6 0.00 0.00 0.00 83 1015.0
20260505040718 13 119 0.0 1.6 0.00 0.00 0.00 83 1014.9
20260505040219 13 125 0.0 3.2 0.00 0.00 0.00 83 1014.8
20260505035724 13 143 1.6 3.2 0.00 0.00 0.00 82 1014.7
20260505035219 13 157 0.0 1.6 0.00 0.00 0.00 82 1014.7
20260505034719 13 118 0.0 1.6 0.00 0.00 0.00 83 1014.6
20260505034219 13 156 0.0 1.6 0.00 0.00 0.00 82 1014.5
20260505033718 13 156 0.0 3.2 0.00 0.00 0.00 82 1014.4
20260505033216 13 125 0.0 1.6 0.00 0.00 0.00 82 1014.3
20260505032737 13 134 0.0 1.6 0.00 0.00 0.00 82 1014.4
20260505032219 13 152 0.0 1.6 0.00 0.00 0.00 82 1014.4
20260505031740 13 50 0.0 3.2 0.00 0.00 0.00 82 1014.5
20260505031220 13 71 1.6 3.2 0.00 0.00 0.00 82 1014.6
20260505030717 13 170 0.0 3.2 0.00 0.00 0.00 82 1014.5
20260505030219 13 137 0.0 1.6 0.00 0.00 0.00 82 1014.5
20260505025719 14 158 0.0 3.2 0.00 0.00 0.00 82 1014.5
20260505025217 14 59 1.6 3.2 0.00 0.00 0.00 81 1014.5
20260505024718 14 124 0.0 1.6 0.00 0.00 0.00 80 1014.5
20260505024238 14 131 0.0 1.6 0.00 0.00 0.00 79 1014.5
20260505023717 15 181 1.6 3.2 0.00 0.00 0.00 79 1014.5
20260505023220 15 12 0.0 3.2 0.00 0.00 0.00 78 1014.5
20260505022720 15 93 0.0 1.6 0.00 0.00 0.00 78 1014.4
20260505022222 -17 153 0.0 1.6 0.00 0.00 0.00
20260505021718 15 126 0.0 0.0 0.00 0.00 0.00 76 1014.4
20260505021218 15 205 0.0 3.2 0.00 0.00 0.00 76 1014.4
20260505020718 15 165 1.6 6.4 0.00 0.00 0.00 76 1014.4
20260505020218 16 224 1.6 4.8 0.00 0.00 0.00 73 1014.4
20260505015718 16 220 3.2 6.4 0.00 0.00 0.00 73 1014.4
20260505015238 16 159 0.0 3.2 0.00 0.00 0.00 73 1014.4
20260505014721 -17 13 1.6 1.6 0.00 0.00 0.00
20260505014121 -17 183 3.2 4.8 0.00 0.00 0.00
20260505013950 16 228 0.0 1.6 0.00 0.00 0.00 70 1014.5
20260505013121 16 241 0.0 3.2 0.00 0.00 0.00 69 1014.6
20260505012618 16 177 1.6 4.8 0.00 0.00 0.00 68 1014.6
20260505012118 16 205 0.0 3.2 0.00 0.00 0.00 68 1014.7
20260505011519 16 238 1.6 4.8 0.00 0.00 0.00 68 1014.7
20260505011039 16 165 3.2 8.0 0.00 0.00 0.00 67 1014.8
20260505010539 16 0.0 0.0 0.00 0.00 0.00 68 1014.8
20260505010019 16 146 3.2 6.4 0.00 0.00 0.00 68 1014.8
20260505005519 17 198 1.6 3.2 0.00 0.00 0.00 67 1014.9
20260505005019 17 221 1.6 3.2 0.00 0.00 0.00 67 1014.9
20260505004520 16 243 1.6 3.2 0.00 0.00 0.00 67 1015.0
20260505004021 16 250 1.6 3.2 0.00 0.00 0.00 67 1015.0
20260505003516 16 258 3.2 6.4 0.00 0.00 0.00 67 1015.0
20260505003017 16 221 1.6 4.8 0.00 0.00 0.00 69 1015.0
20260505002520 16 288 3.2 8.0 0.00 0.00 0.00 70 1015.1
20260505002019 16 254 1.6 4.8 0.00 0.00 0.00 70 1015.1
20260505001541 16 235 1.6 4.8 0.00 0.00 0.00 68 1015.0
20260505001019 16 209 1.6 3.2 0.00 0.00 0.00 69 1014.9
20260505000520 16 170 3.2 9.7 0.00 0.00 0.00 68 1014.8
20260505000017 16 217 3.2 8.0 0.00 0.00 0.00 69 1014.8
20260504235518 16 174 3.2 6.4 0.00 0.00 0.00 69 1014.9
20260504235017 16 247 3.2 6.4 0.00 0.00 0.00 69 1014.9
20260504234537 16 213 3.2 9.7 0.00 0.00 0.00 70 1015.0
20260504234039 16 287 3.2 6.4 0.00 0.00 0.00 69 1015.0
20260504233520 16 215 3.2 6.4 0.00 0.00 0.00 68 1015.0
20260504233041 16 181 4.8 8.0 0.00 0.00 0.00 69 1015.0
20260504232525 16 274 4.8 8.0 0.00 0.00 0.00 69 1015.0
20260504232018 16 178 3.2 6.4 0.00 0.00 0.00 70 1015.1
20260504231518 16 332 3.2 6.4 0.00 0.00 0.00 69 1015.1
20260504231018 17 328 3.2 6.4 0.00 0.00 0.00 67 1015.1
20260504230518 17 201 4.8 9.7 0.00 0.00 0.00 69 1015.1
20260504230020 17 206 6.4 11.3 0.00 0.00 0.00 70 1015.1
20260504225538 17 242 3.2 8.0 0.00 0.00 0.00 69 1015.2
20260504225019 17 233 1.6 4.8 0.00 0.00 0.00 71 1015.2
20260504224519 17 261 3.2 8.0 0.00 0.00 0.00 71 1015.2
20260504224018 16 328 3.2 6.4 0.00 0.00 0.00 72 1015.3
20260504223519 16 218 3.2 8.0 0.00 0.00 0.00 74 1015.4
20260504223100 16 213 4.8 11.3 0.00 0.00 0.00 73 1015.3
20260504222519 17 142 3.2 9.7 0.00 0.00 0.00 71 1015.2
20260504222039 16 312 1.6 6.4 0.00 0.00 0.00 72 1015.3
20260504221519 17 217 3.2 8.0 0.00 0.00 0.00 71 1015.3
20260504221024 17 277 3.2 6.4 0.00 0.00 0.00 69 1015.5
20260504220519 17 213 4.8 6.4 0.00 0.00 0.00 68 1015.5
20260504220019 17 23 3.2 6.4 0.00 0.00 0.00 69 1015.5
20260504215516 17 233 3.2 8.0 0.00 0.00 0.00 67 1015.6
20260504215016 16 232 1.6 4.8 0.00 0.00 0.00 72 1015.6
20260504214516 16 243 3.2 4.8 0.00 0.00 0.00 73 1015.7
20260504214017 16 288 3.2 9.7 0.00 0.00 0.00 74 1015.8
20260504213516 16 264 3.2 8.0 0.00 0.00 0.00 76 1015.7
20260504213024 16 179 0.0 1.6 0.00 0.00 0.00 75 1015.7
20260504212520 17 197 3.2 9.7 0.00 0.00 0.00 74 1015.7
20260504212020 17 219 4.8 9.7 0.00 0.00 0.00 71 1015.8
20260504211517 16 208 4.8 12.9 0.00 0.00 0.00 75 1015.9
20260504211018 16 3 3.2 9.7 0.00 0.00 0.00 74 1015.9
20260504210517 16 246 1.6 4.8 0.00 0.00 0.00 74 1015.9
20260504210018 16 268 3.2 6.4 0.00 0.00 0.00 74 1016.0
20260504205517 16 192 1.6 4.8 0.00 0.00 0.00 74 1015.9
20260504205042 16 155 3.2 6.4 0.00 0.00 0.00 73 1015.9
20260504204518 16 26 3.2 6.4 0.00 0.00 0.00 74 1015.7
20260504204018 16 5 3.2 6.4 0.00 0.00 0.00 73 1015.8
20260504203518 16 258 3.2 4.8 0.00 0.00 0.00 75 1015.9
20260504203021 16 4 3.2 4.8 0.00 0.00 0.00 77 1015.9
20260504202526 16 175 4.8 9.7 0.00 0.00 0.00 74 1016.0
20260504202018 16 215 3.2 4.8 0.00 0.00 0.00 74 1016.0
20260504201518 16 198 3.2 6.4 0.00 0.00 0.00 75 1016.0
20260504201018 16 161 4.8 8.0 0.00 0.00 0.00 76 1016.1
20260504200518 16 192 3.2 8.0 0.00 0.00 0.00 73 1016.1
20260504200019 16 327 3.2 4.8 0.00 0.00 0.00 75 1016.1
20260504195601 16 205 3.2 4.8 0.00 0.00 0.00 74 1016.1
20260504195018 16 239 1.6 3.2 0.00 0.00 0.00 75 1016.1
20260504194539 16 251 1.6 3.2 0.00 0.00 0.00 76 1016.1
20260504194018 16 189 3.2 8.0 0.00 0.00 0.00 76 1016.1
20260504193539 16 193 3.2 6.4 0.00 0.00 0.00 76 1016.1
20260504193024 16 215 3.2 8.0 0.00 0.00 0.00 72 1016.2
20260504192539 16 276 3.2 4.8 0.00 0.00 0.00 76 1016.2
20260504192019 15 82 3.2 6.4 0.00 0.00 0.00 76 1016.1
20260504191519 15 169 1.6 4.8 0.00 0.00 0.00 76 1016.2
20260504191044 15 248 3.2 6.4 0.00 0.00 0.00 78 1016.3
20260504190540 15 200 3.2 6.4 0.00 0.00 0.00 78 1016.1
20260504190020 15 248 3.2 6.4 0.00 0.00 0.00 80 1016.1
20260504185516 15 153 1.6 4.8 0.00 0.00 0.00 77 1016.2
20260504185016 15 208 3.2 6.4 0.00 0.00 0.00 78 1016.2
20260504184517 15 239 3.2 6.4 0.00 0.00 0.00 78 1016.2
20260504184017 15 254 3.2 8.0 0.00 0.00 0.00 76 1016.1
20260504183517 16 247 3.2 4.8 0.00 0.00 0.00 74 1016.1
20260504183020 15 213 1.6 4.8 0.00 0.00 0.00 76 1016.1
20260504182519 15 282 3.2 8.0 0.00 0.00 0.00 74 1016.1
20260504182021 15 178 1.6 6.4 0.00 0.00 0.00 77 1016.1
20260504181518 15 257 4.8 9.7 0.00 0.00 0.00 74 1016.1
20260504181017 15 255 1.6 8.0 0.00 0.00 0.00 78 1016.0
20260504180518 15 234 3.2 4.8 0.00 0.00 0.00 77 1016.0
20260504180017 15 190 3.2 6.4 0.00 0.00 0.00 79 1016.0
20260504175517 15 255 3.2 4.8 0.00 0.00 0.00 77 1015.9
20260504175022 15 194 3.2 4.8 0.00 0.00 0.00 78 1015.8
20260504174517 15 29 3.2 6.4 0.00 0.00 0.00 76 1015.7
20260504174021 15 192 3.2 4.8 0.00 0.00 0.00 76 1015.6
20260504173538 15 248 4.8 9.7 0.00 0.00 0.00 75 1015.5
20260504173018 15 240 3.2 6.4 0.00 0.00 0.00 76 1015.6
20260504172523 15 149 1.6 4.8 0.00 0.00 0.00 76 1015.6